Weather History for Richmond, KY

Change the Weather History Date:

Saturday, October 8, 2011

  Actual Average (KLOZ) Record (KLOZ)
Temperature  
Mean Temperature 68 °F 60 °F  
Max Temperature 78 °F 72 °F 90 °F (2007)
Min Temperature 57 °F 48 °F 30 °F (1991)
Degree Days  
Heating Degree Days 0 6  
Month to date heating degree days 42  
Since 1 July heating degree days 89  
Cooling Degree Days 2 1  
Month to date cooling degree days 10  
Year to date cooling degree days 1177  
Growing Degree Days 18 (Base 50)    
Moisture  
Dew Point 50 °F    
Average Humidity 55    
Maximum Humidity 88    
Minimum Humidity 36    
Precipitation  
Precipitation 0.00 in 0.10 in 1.11 in (1977)
Month to date precipitation 0.77  
Sea Level Pressure  
Sea Level Pressure 30.38 in    
Wind  
Wind Speed 3 mph (SE)    
Max Wind Speed 7 mph    
Max Gust Speed -    
Visibility 10 miles    
Events      
T = Trace of Precipitation, MM = Missing Value Source: NWS Daily Summary

Daily Weather History Graph

Daily Weather History Graph

Search for Another Location

Airport:

Trip Planner

Search our weather history database for the weather conditions in past years. The results will help you decide how hot, cold, wet, or windy it might be!

Date:

Astronomy

Oct. 08, 2011 Rise Set
Actual Time 7:38 AM EDT 7:10 PM EDT
Civil Twilight 7:12 AM EDT 7:36 PM EDT
Nautical Twilight 6:42 AM EDT 8:06 PM EDT
Astronomical Twilight 6:11 AM EDT 8:37 PM EDT
Moon 5:17 PM EDT (10/8) 4:28 AM EDT (10/8)
Length of Visible Light 12h 23m
Length of Day
11h 31m
Waxing Gibbous, 90% of the Moon is Illuminated
Oct 8
Waxing Gibbous
Oct 11
Full
Oct 19
Last Quarter
Oct 26
New
Nov 2
First Quarter

Hourly Weather History & Observations

Time (EDT) Temp. Dew Point Humidity Pressure Visibility Wind Dir Wind Speed Gust Speed Precip Events Conditions
12:15 AM 60.8 °F 53.6 °F 77% 30.34 in 10.0 mi SE 3.5 mph - N/A   Unknown
12:35 AM 60.8 °F 53.6 °F 77% 30.34 in 10.0 mi Calm Calm - N/A   Unknown
12:55 AM 60.8 °F 53.6 °F 77% 30.34 in 10.0 mi Calm Calm - N/A   Unknown
1:15 AM 60.8 °F 53.6 °F 77% 30.33 in 10.0 mi Calm Calm - N/A   Unknown
1:35 AM 60.8 °F 53.6 °F 77% 30.33 in 10.0 mi Calm Calm - N/A   Unknown
2:15 AM 59.0 °F 53.6 °F 82% 30.33 in 10.0 mi East 3.5 mph - N/A   Unknown
2:35 AM 57.2 °F 53.6 °F 88% 30.34 in 10.0 mi East 4.6 mph - N/A   Unknown
3:15 AM 59.0 °F 53.6 °F 82% 30.34 in 10.0 mi SE 4.6 mph - N/A   Unknown
3:35 AM 59.0 °F 53.6 °F 82% 30.34 in 10.0 mi SSE 4.6 mph - N/A   Unknown
3:55 AM 62.6 °F 51.8 °F 68% 30.34 in 10.0 mi SSE 3.5 mph - N/A   Unknown
4:15 AM 62.6 °F 51.8 °F 68% 30.34 in 10.0 mi South 3.5 mph - N/A   Unknown
4:35 AM 62.6 °F 50.0 °F 63% 30.34 in 10.0 mi South 4.6 mph - N/A   Unknown
4:55 AM 62.6 °F 50.0 °F 63% 30.35 in 10.0 mi South 5.8 mph - N/A   Unknown
5:15 AM 62.6 °F 50.0 °F 63% 30.36 in 10.0 mi South 5.8 mph - N/A   Unknown
5:35 AM 62.6 °F 50.0 °F 63% 30.37 in 10.0 mi South 5.8 mph - N/A   Unknown
5:55 AM 62.6 °F 50.0 °F 63% 30.37 in 10.0 mi SSE 5.8 mph - N/A   Unknown
6:15 AM 62.6 °F 50.0 °F 63% 30.38 in 10.0 mi South 4.6 mph - N/A   Unknown
6:35 AM 62.6 °F 50.0 °F 63% 30.38 in 10.0 mi South 5.8 mph - N/A   Unknown
6:55 AM 62.6 °F 50.0 °F 63% 30.39 in 10.0 mi South 6.9 mph - N/A   Unknown
7:15 AM 60.8 °F 48.2 °F 63% 30.40 in 7.0 mi South 4.6 mph - N/A   Unknown
7:35 AM 60.8 °F 48.2 °F 63% 30.41 in 10.0 mi South 5.8 mph - N/A   Unknown
7:55 AM 60.8 °F 48.2 °F 63% 30.41 in 7.0 mi South 5.8 mph - N/A   Unknown
8:15 AM 60.8 °F 48.2 °F 63% 30.42 in 10.0 mi South 4.6 mph - N/A   Unknown
8:35 AM 60.8 °F 50.0 °F 68% 30.42 in 7.0 mi Calm Calm - N/A   Unknown
8:55 AM 62.6 °F 50.0 °F 63% 30.43 in 10.0 mi Calm Calm - N/A   Unknown
9:15 AM 62.6 °F 50.0 °F 63% 30.43 in 10.0 mi SSW 3.5 mph - N/A   Unknown
9:35 AM 64.4 °F 50.0 °F 59% 30.44 in 10.0 mi SW 5.8 mph - N/A   Unknown
9:55 AM 66.2 °F 50.0 °F 56% 30.44 in 10.0 mi SSW 5.8 mph - N/A   Unknown
10:15 AM 68.0 °F 48.2 °F 49% 30.44 in 10.0 mi SSW 6.9 mph - N/A   Unknown
10:55 AM 69.8 °F 48.2 °F 46% 30.44 in 10.0 mi SSE 4.6 mph - N/A   Unknown
11:15 AM 69.8 °F 48.2 °F 46% 30.44 in 10.0 mi South 5.8 mph - N/A   Unknown
11:35 AM 69.8 °F 48.2 °F 46% 30.44 in 10.0 mi South 4.6 mph - N/A   Unknown
11:55 AM 71.6 °F 48.2 °F 43% 30.44 in 10.0 mi South 4.6 mph - N/A   Unknown
12:15 PM 73.4 °F 50.0 °F 44% 30.44 in 10.0 mi Calm Calm - N/A   Unknown
12:35 PM 73.4 °F 46.4 °F 38% 30.43 in 10.0 mi Calm Calm - N/A   Unknown
12:55 PM 73.4 °F 46.4 °F 38% 30.43 in 10.0 mi South 3.5 mph - N/A   Unknown
1:15 PM 75.2 °F 48.2 °F 38% 30.42 in 10.0 mi Calm Calm - N/A   Unknown
1:35 PM 75.2 °F 46.4 °F 36% 30.41 in 10.0 mi Calm Calm - N/A   Unknown
1:55 PM 75.2 °F 48.2 °F 38% 30.40 in 10.0 mi NNE 3.5 mph - N/A   Unknown
2:15 PM 77.0 °F 50.0 °F 39% 30.39 in 10.0 mi NNE 3.5 mph - N/A   Unknown
2:35 PM 77.0 °F 50.0 °F 39% 30.38 in 10.0 mi Calm Calm - N/A   Unknown
2:55 PM 77.0 °F 50.0 °F 39% 30.38 in 10.0 mi Calm Calm - N/A   Unknown
3:15 PM 77.0 °F 50.0 °F 39% 30.37 in 10.0 mi NE 3.5 mph - N/A   Unknown
3:55 PM 77.0 °F 50.0 °F 39% 30.36 in 10.0 mi North 4.6 mph - N/A   Unknown
4:15 PM 78.8 °F 51.8 °F 39% 30.36 in 10.0 mi East 4.6 mph - N/A   Unknown
4:35 PM 78.8 °F 50.0 °F 36% 30.35 in 10.0 mi East 3.5 mph - N/A   Unknown
4:55 PM 78.8 °F 51.8 °F 39% 30.35 in 10.0 mi Calm Calm - N/A   Unknown
5:15 PM 77.0 °F 51.8 °F 41% 30.34 in 10.0 mi ENE 4.6 mph - N/A   Unknown
5:35 PM 77.0 °F 51.8 °F 41% 30.34 in 10.0 mi ENE 4.6 mph - N/A   Unknown
5:55 PM 77.0 °F 51.8 °F 41% 30.34 in 10.0 mi East 4.6 mph - N/A   Unknown
6:15 PM 75.2 °F 51.8 °F 44% 30.34 in 10.0 mi East 4.6 mph - N/A   Unknown
6:35 PM 75.2 °F 51.8 °F 44% 30.34 in 10.0 mi East 3.5 mph - N/A   Unknown
6:55 PM 73.4 °F 50.0 °F 44% 30.34 in 10.0 mi East 4.6 mph - N/A   Unknown
7:15 PM 71.6 °F 50.0 °F 46% 30.34 in 10.0 mi East 4.6 mph - N/A   Unknown
7:35 PM 69.8 °F 50.0 °F 49% 30.34 in 10.0 mi ESE 3.5 mph - N/A   Unknown
7:55 PM 68.0 °F 51.8 °F 56% 30.34 in 10.0 mi East 3.5 mph - N/A   Unknown
8:15 PM 66.2 °F 51.8 °F 60% 30.34 in 10.0 mi Calm Calm - N/A   Unknown
8:35 PM 66.2 °F 51.8 °F 60% 30.35 in 10.0 mi Calm Calm - N/A   Unknown
8:55 PM 64.4 °F 51.8 °F 64% 30.35 in 10.0 mi East 4.6 mph - N/A   Unknown
9:15 PM 62.6 °F 51.8 °F 68% 30.36 in 10.0 mi East 3.5 mph - N/A   Unknown
9:35 PM 60.8 °F 51.8 °F 72% 30.36 in 10.0 mi SE 3.5 mph - N/A   Unknown
9:55 PM 59.0 °F 51.8 °F 77% 30.37 in 10.0 mi SE 4.6 mph - N/A   Unknown
10:15 PM 59.0 °F 51.8 °F 77% 30.36 in 10.0 mi ESE 3.5 mph - N/A   Unknown
10:35 PM 59.0 °F 53.6 °F 82% 30.36 in 10.0 mi ESE 4.6 mph - N/A   Unknown
10:55 PM 55.4 °F 51.8 °F 88% 30.35 in 10.0 mi East 4.6 mph - N/A   Unknown
11:15 PM 55.4 °F 51.8 °F 88% 30.35 in 10.0 mi ESE 4.6 mph - N/A   Unknown
11:35 PM 55.4 °F 51.8 °F 88% 30.35 in 10.0 mi SE 4.6 mph - N/A   Unknown
11:55 PM 55.4 °F 51.8 °F 88% 30.35 in 10.0 mi ESE 5.8 mph - N/A   Unknown